Location: Cortos
(40.7190°N, 4.5893°W)
Time: 19:36:18
(UTC+00:00)

ATLAS 2AS CENTAUR R/B - Pass Details

Date: 05 July 2020
Orbit: 930 x 1282 km, 63.7° (Epoch: 19 July)

Event Time Altitude Azimuth Distance (km) Brightness Sun altitude
Rises 22:32:04 0° 328° (NNW) 4,177 7.3 -21.6°
Reaches altitude 10° 22:35:08 10° 335° (NNW) 3,167 6.3 -21.8°
Maximum altitude 22:42:18 43° 45° (NE) 1,556 3.6 -22.4°
Enters shadow 22:46:18 23° 103° (ESE) 2,145 3.9 -22.7°
